Roseburg, OR

10:11 AM PST on November 12, 2019 (GMT -0800)
Roseburg Regional

Weather History for KRBG - September, 2019

Change the Weather History Date:

Wednesday, September 25, 2019

  Actual Average Record
Temperature  
Mean Temperature 67 °F 62 °F  
Max Temperature 77 °F 76 °F 91 °F (1952)
Min Temperature 57 °F 49 °F 36 °F (1970)
Degree Days  
Heating Degree Days 0 4  
Month to date heating degree days 28 45  
Since 1 July heating degree days 33 66  
Cooling Degree Days 2 1  
Month to date cooling degree days 76 61  
Year to date cooling degree days 679 472  
Growing Degree Days 17 (Base 50)    
Moisture  
Dew Point 52 °F    
Average Humidity 62    
Maximum Humidity 90    
Minimum Humidity 33    
Precipitation  
Precipitation 0.00 in 0.04 in 0.42 in (1986)
Month to date precipitation 2.15 0.74  
Year to date precipitation 24.92 20.39  
Sea Level Pressure  
Sea Level Pressure 30.17 in    
Wind  
Wind Speed 6 mph (North)    
Max Wind Speed 18 mph    
Max Gust Speed 22 mph    
Visibility 10 miles    
Events      
T = Trace of Precipitation, MM = Missing Value Source: NWS Daily Summary

Daily Weather History Graph

Daily Weather History Graph

Search for Another Location

Airport or City:

Astronomy

Sep. 25, 2019 Rise Set
Actual Time 7:03 AM PDT 7:05 PM PDT
Civil Twilight 6:35 AM PDT 7:33 PM PDT
Nautical Twilight 6:02 AM PDT 8:07 PM PDT
Astronomical Twilight 5:28 AM PDT 8:40 PM PDT
Moon 2:55 AM PDT (9/25) 5:49 PM PDT (9/25)
Length of Visible Light 12h 58m
Length of Day
12h 01m
Waning Crescent, 13% of the Moon is Illuminated
Sep 25
Waning Crescent
Sep 28
New
Oct 5
First Quarter
Oct 13
Full
Oct 21
Last Quarter

Hourly Weather History & Observations

Time (PDT) Temp. Dew Point Humidity Pressure Visibility Wind Dir Wind Speed Gust Speed Precip Events Conditions
12:53 AM 61.0 °F 57.0 °F 87% 30.19 in 10.0 mi Calm Calm - N/A   Clear
1:53 AM 60.1 °F 57.0 °F 90% 30.21 in 10.0 mi Calm Calm - N/A   Clear
2:53 AM 59.0 °F 55.9 °F 90% 30.21 in 10.0 mi Calm Calm - N/A   Clear
3:53 AM 62.1 °F 55.9 °F 80% 30.22 in 10.0 mi Variable 4.6 mph - N/A   Clear
4:40 AM 61.0 °F 55.0 °F 81% 30.22 in 10.0 mi NNE 8.1 mph - N/A   Mostly Cloudy
4:49 AM 60.8 °F 55.4 °F 82% 30.22 in 10.0 mi North 4.6 mph - N/A   Mostly Cloudy
4:53 AM 60.1 °F 55.0 °F 83% 30.22 in 10.0 mi NNE 5.8 mph - N/A   Mostly Cloudy
5:53 AM 60.1 °F 55.0 °F 83% 30.22 in 10.0 mi North 8.1 mph - N/A   Overcast
6:53 AM 60.1 °F 54.0 °F 80% 30.22 in 10.0 mi NNW 5.8 mph - N/A   Overcast
7:53 AM 60.1 °F 54.0 °F 80% 30.22 in 10.0 mi North 8.1 mph - N/A   Overcast
8:53 AM 60.1 °F 54.0 °F 80% 30.23 in 10.0 mi North 8.1 mph - N/A   Overcast
9:53 AM 60.1 °F 54.0 °F 80% 30.23 in 10.0 mi North 5.8 mph - N/A   Overcast
10:36 AM - - N/A% 30.23 in - North - - N/A   Unknown
10:53 AM - - N/A% 30.22 in - North - - N/A   Unknown
11:53 AM - - N/A% 30.21 in - North - - N/A   Unknown
12:53 PM - - N/A% 30.19 in - North - - N/A   Unknown
1:53 PM 72.0 °F 48.0 °F 43% 30.15 in 10.0 mi North 15.0 mph - N/A   Clear
2:53 PM 75.0 °F 46.0 °F 36% 30.11 in 10.0 mi North 11.5 mph - N/A   Clear
3:53 PM 75.9 °F 44.1 °F 32% 30.10 in 10.0 mi North 11.5 mph - N/A   Clear
4:53 PM 75.9 °F 44.1 °F 32% 30.09 in 10.0 mi North 15.0 mph - N/A   Clear
5:53 PM 73.9 °F 46.9 °F 38% 30.08 in 10.0 mi North 17.3 mph 20.7 mph N/A   Clear
6:53 PM 70.0 °F 48.9 °F 47% 30.08 in 10.0 mi North 11.5 mph - N/A   Clear
7:53 PM 66.9 °F 48.9 °F 52% 30.09 in 10.0 mi NW 4.6 mph - N/A   Clear
8:53 PM 66.0 °F 48.9 °F 54% 30.09 in 10.0 mi Calm Calm - N/A   Clear
9:53 PM 63.0 °F 50.0 °F 63% 30.09 in 10.0 mi Calm Calm - N/A   Clear
10:53 PM 61.0 °F 50.0 °F 67% 30.09 in 10.0 mi Calm Calm - N/A   Clear
11:53 PM 57.9 °F 50.0 °F 75% 30.07 in 10.0 mi Calm Calm - N/A   Clear